www.pogodaiklimat.ru

Погода и климат >> Архив погоды >> Албания >> Vlore


ПОГОДА в Vlore

  • Прогноз погоды в Vlore
  • Монитор погоды в Vlore
  • Климат города

АРХИВ ПОГОДЫ в Vlore

Время (UTC), дата Ветер
(напр.,м/с)
 
Видим.   Явления Облачность Т
(С)
Тd
(С)
f
(%)
Тe
(С)
Тes
(С)
Комфортность P
(гПа)
Po
(гПа)
Тmin
(С)
Tmax
(С)
R
(мм)
R24
(мм)
S
(см)
06 15.02 штиль 0 12 км слабый дождь 10/10 1200 м
[Sc]
+5.8 +3.2 83 +5 +5 1009.0 1008.3 +4.8 2
09 15.02 СВ 4 12 км слабый дождь 10/10 1200 м
[Sc]
+6.4 +2.7 77 +3 +3 1011.1 1010.3
12 15.02 СВ 4 15 км {дождь} 9/9 1300 м
[Sc]
+9.6 +2.4 61 +7 +8 1011.9 1011.2 8
15 15.02 СВ 12 20 км 6/6 1300 м
[Sc]
+11.0 +2.6 56 +7 +7 1012.2 1011.5
18 15.02 СВ 6 12 км 3/3 1380 м
[Sc]
+9.2 +1.2 57 +6 +6 1015.0 1014.2 +11.8 8
21 15.02 СВ 4 10 км ясно +6.6 +0.3 64 +3 +3 1016.1 1015.4
06 16.02 штиль 0 15 км ясно +2.2 -1.4 77 +1 +2 1019.8 1019.0 +1.0
09 16.02 штиль 0 12 км ясно +7.4 +3.6 77 +7 +15 1021.2 1020.5
12 16.02 СВ 4 20 км ясно +12.0 +3.2 55 +10 +15 1021.9 1021.2
15 16.02 СЗ 4 20 км ясно +13.8 +4.1 52 +13 +13 1021.8 1021.1
18 16.02 штиль 0 20 км ясно +9.8 +2.8 62 +9 +9 1022.6 1021.8 +14.2
21 16.02 СВ 4 15 км ясно +6.2 +2.3 76 +3 +3 1022.8 1022.1
06 17.02 В 4 15 км ясно +3.6 +2.1 90 -1 -1 1022.7 1021.9 +2.4
09 17.02 штиль 0 20 км ясно +8.8 +6.6 86 +8 +17 1022.2 1021.5
12 17.02 ЮЗ 4 20 км 5/0
[Ci fib]
+13.8 +5.2 56 +12 +17 1021.6 1020.9
15 17.02 СЗ 6 20 км 6/0
[Ci fib]
+14.4 +6.5 59 +13 +13 1019.8 1019.1
18 17.02 штиль 0 12 км ясно +9.8 +5.4 74 +9 +9 1019.3 1018.6 +15.8
21 17.02 штиль 0 10 км ясно +6.6 +3.7 82 +6 +6 1021.0 1020.3
06 18.02 СВ 6 15 км 8/8 1300 м
[Sc]
+8.4 +5.4 81 +4 +4 1018.0 1017.3 +6.0
09 18.02 СВ 2 15 км 10/10 1300 м
[Sc]
+12.8 +7.9 72 +12 +12 1017.9 1017.1
12 18.02 ЮЗ 4 15 км 10/10 1300 м
[Sc]
+14.6 +7.6 63 +13 +13 1017.3 1016.6
15 18.02 ЮЗ 4 15 км 10/10 1300 м
[Sc]
+14.2 +6.1 58 +13 +13 1016.9 1016.2
18 18.02 СВ 4 12 км 10/10 1300 м
[Sc]
+12.6 +6.0 64 +11 +11 1015.2 1014.5 +15.0
21 18.02 СВ 4 10 км 10/10 1300 м
[Sc]
+9.4 +5.4 76 +7 +7 1012.8 1012.1
06 19.02 штиль 0 12 км в посл. час дождь 10/10 1200 м
[Sc]
+10.4 +6.4 76 +10 +10 1012.3 1011.5 +8.8 0.0
09 19.02 ЮВ 2 15 км 10/10 1200 м
[Sc]
+11.8 +6.8 71 +11 +11 1012.6 1011.8
12 19.02 ЮВ 2 15 км 10/10 1200 м
[Sc]
+13.2 +7.4 68 +13 +13 1012.1 1011.3
15 19.02 ЮЗ 4 15 км в посл. час дождь 10/10 1200 м
[Sc]
+13.2 +7.9 70 +12 +12 1010.9 1010.2
18 19.02 С 2 15 км в посл. час дождь 10/10 1200 м
[Sc]
+12.0 +7.3 73 +11 +11 1010.6 1009.9 +13.6 0.4
21 19.02 СВ 4 12 км 10/10 1200 м
[Sc]
+12.4 +6.6 68 +11 +11 1010.2 1009.4
06 20.02 штиль 0 15 км в посл. час дождь 10/10 1200 м
[Sc]
+10.6 +8.1 85 +10 +10 1007.6 1006.9 +9.4 4
09 20.02 СВ 2 15 км слабый дождь 10/10 1080 м
[Sc]
+11.2 +6.4 72 +10 +10 1007.3 1006.6
12 20.02 СВ 4 12 км слабый дождь 10/10 1080 м
[Sc]
+9.6 +6.9 83 +7 +7 1007.3 1006.6 12
15 20.02 СВ 6 12 км слабый дождь 10/10 1000 м
[Sc]
+8.8 +6.9 88 +5 +5 1005.6 1004.9
18 20.02 СВ 8 10 км в посл. час дождь 10/10 1080 м
[Sc]
+9.2 +7.3 88 +5 +5 1004.2 1003.5 +11.8 42
21 20.02 СВ 4 10 км в посл. час дождь 10/10 1080 м
[Sc]
+8.8 +5.9 82 +6 +6 1003.6 1002.9
06 21.02 ЮВ 6 12 км {дождь} 10/10 1200 м
[Sc]
+11.2 +5.7 69 +8 +8 1001.6 1000.9 +8.0 14
09 21.02 СВ 2 15 км слабый дождь 10/10 1200 м
[Sc]
+11.0 +6.4 73 +10 +10 1002.8 1002.1
12 21.02 ЮВ 8 15 км слабый дождь 10/10 1200 м
[Sc]
+13.2 +5.9 61 +11 +11 1002.5 1001.8 0.6
15 21.02 СВ 6 15 км слабый дождь 10/10 1200 м
[Sc]
+11.4 +6.5 72 +9 +9 1001.3 1000.6
18 21.02 СВ 8 10 км слабый дождь 10/10 1200 м
[Sc]
+10.8 +7.1 78 +7 +7 1001.4 1000.6 +13.6 1
21 21.02 СВ 6 10 км слабый дождь 10/10 1200 м
[Sc]
+10.0 +5.2 72 +7 +7 1000.7 1000.0

 

Местоположение метеостанции Vlore (Албания): широта 40.47 долгота 19.48 высота над уровнем моря 1 м.

В архиве по умолчанию представлена погода в Vlore за последнюю неделю. Архивные данные за месяц целиком и за предыдущие месяцы, начиная с января 2011 года, Вы можете получить, выбрав интересующий диапазон дат из раскрывающегося списка и нажав кнопку "Ввод!".

Внимание! Время в таблицах - всемирное. Для получения местного времени необходимо прибавить поправку, которая в Vlore равна 1 ч.

Смотрите также архив погоды в соседних городах и на ближайших метеорологических станциях:

Погода в Sazan Island (Албания) (17 км)
Погода в Qyteti Stalin (Албания) (51 км)
Погода в Gjirokastra (Албания) (72 км)
Погода в Saranda (Албания) (79 км)
Погода в Durres (Албания) (92 км)
Погода в Otranto (Италия) (94 км)
Погода в Elbasan (Албания) (96 км)
Погода в Tirana (Албания) (99 км)
Погода в Tirana Lapraka (Албания) (102 км)
Погода в Kerkyra (Греция) (102 км)

Пояснения к столбцам:

Ветер - указаны скорость ветра в м/с - средняя за 10 мин, порывы в срок и между сроками (в фигурных скобках) и направление, откуда дует ветер: С - северный, СВ - северо-восточный, В - восточный, ЮВ - юго-восточный, Ю - южный, ЮЗ - юго-западный, З - западный, СЗ - северо-западный.
Видимость - горизонтальная дальность видимости в метрах или километрах. При видимости от 1 до 10 км при отсутствии осадков обычно наблюдается дымка, при ухудшении видимости до 1 км и менее - туман. В сухую погоду видимость может ухудшаться дымом, пылью или мглою.
Явления - указаны атмосферные явления, наблюдавшиеся в срок или в последний час перед сроком; фигурными скобками обозначены явления, наблюдавшиеся между сроками (за 1-3 часа до срока); квадратными скобками обозначены град или гололедные отложения с указанием их диаметра в мм.
Облачность - указаны через наклонную черту общая и нижняя облачность в баллах и высота нижней границы облаков в метрах; квадратными скобками обозначены формы облаков: Ci - перистые, Cs - перисто-слоистые, Cc - перисто-кучевые, Ac - высококучевые, As - высокослоистые, Sc - слоисто-кучевые, Ns - слоисто-дождевые, Cu - кучевые, Cb - кучево-дождевые. Подробнее классификацию облаков см. в Атласе облаков (PDF).
T - Температура воздуха - температура, измеренная на высоте 2 м над землей.
Td - Температура точки росы - температура, при понижении до которой содержащийся в воздухе водяной пар достигнет насыщения.
f - Относительная влажность воздуха - влажноcть воздуха, измеренная на высоте 2 м над землей.
Te - Эффективная температура - температура, которую ощущает одетый по сезону человек в тени. Характеристика душности погоды. При расчете учитывается влияние влажности воздуха и скорости ветра на теплоощущения человека.
Tes - Эффективная температура на солнце - температура, которую ощущает человек, с поправкой на солнечный нагрев. Характеристика знойности погоды. Зависит от высоты солнца над горизонтом, облачности и скорости ветра. Ночью, в пасмурную погоду, а также при ветре 12 м/с и более поправка равна нулю.
P - Атмосферное давление - приведенное к уровню моря атмосферное давление.
Po - Атмосферное давление - измеренное на уровне метеостанции атмосферное давление.
Tmin - Минимальная температура - минимум температуры воздуха на высоте 2 м над землей.
Tmax - Максимальная температура - максимум температуры воздуха на высоте 2 м над землей.
R - Количество осадков - Количество выпавших осадков за период времени, мм. При наведении курсора мыши на число - период времени, за который выпало указанное количество осадков.
R24 - Количество осадков - Количество выпавших осадков за 24 часа, мм.
S - Снежный покров - Высота снежного покрова, см. При наведении курсора мыши на число - состояние снежного покрова и степень покрытия местности в баллах.